Погода в Ореле

Погода в Ореле : погода сейчас, прогноз погоды и архив. Всё, что Вы хотите узнать о погоде в Ореле!

Хотите узнать прогноз погоды в Ореле? Тогда Вам сюда: Погода в Ореле

Поиск расширенной информации на нашем сайте:

Другие новости

Новости СМИ2

Главная страница сайта

Новости сайта

03.07.2017

Напоминаем, что на нашем специализированном сайте Метеоцентр.Азия вы можете получить высокодетализированные автоматические прогнозы погоды по пунктам России, СНГ и мира в авиационном формате (включающие направление и скорость ветра, видимость, явления погоды, количество и форму облачности, нижнюю и верхнюю границу облачности).


Погода в Ореле - сегодня

Время (UTC), дата Ветер
(°,м/с) 
Видим.   Явления Облачность Т
(°С)
Тd
(°С)
f(%) Тe
(°С)
Pmin
(гПа)
dP
(гПа)
Po
(мм)
O2
(г/м3)
Тmin Tmax R s Состояние
почвы
00 13.08.18 310 (СЗ) 10 км    ясно 
+14.3 +12.8 91 +21  1015.5  744  282           
09 13.08.18 270 (З) 10 км    9/5 600 м верхняя 
[Cu hum|Ci fib]
+23.8 +8.2 37 +24  1014.6  -0.5  744  274           
12 13.08.18 280 (З) 10 км    9/3 600 м верхняя 
[Cu hum|Ci fib]
+25 +7.7 33 +25  1014.1  -0.4  744  273           
15 13.08.18 290 (З) 10 км    9/0 верхняя 
[Ci sp]
+23.8 +8.2 37 +24  1013.6  -0.4  743  274           
21 13.08.18 тихо ()   10 км    10/0 средняя, верхняя 
[Ac trans|Cs]
+14.8 +11.1 78 +18  1014.9  0.3  744  282           
00 14.08.18 130 (ЮВ) 10 км    10/0 средняя, верхняя 
[Ac trans|Cs]
+11.4 +10.3 93 +15  1015.4  0.3  744  286           
09 14.08.18 170 (Ю) 10 км    8/3 600 м кучево-дожд., средняя 
[Cb calv|Ac trans]
+21.5 +10.5 49 +23  1016.7  0.5  746  277           
12 14.08.18 180 (Ю) 10 км    8/3 600 м средняя, верхняя 
[Cu hum|Ac trans|Ci fib]
+24.9 +12.4 46 +30  1015.5  -0.9  745  273           
15 14.08.18 170 (Ю) 10 км    9/1 600 м средняя, верхняя 
[Cu hum|Ac trans|Ci fib]
+24.9 +11.5 43 +28  1015  -0.5  744  273           
21 14.08.18 140 (ЮВ) 10 км    6/3 600 м кучево-дожд., верхняя 
[Cb calv|Ci fib]
+18 +12 68 +23  1015.6  -0.1  745  279           
09 15.08.18 200 (Ю) 10 км    6/0 средняя, верхняя 
[Ac trans|Ci fib]
+28 +15.1 45 +37  1013.1  -0.6  743  269           
12 15.08.18 240 (ЮЗ) 10 км    8/4 600 м верхняя 
[Cu hum|Ci fib]
+30.9 +13.4 34 +37  1012.1  -0.7  743  266           
21 15.08.18 тихо ()   10 км    6/3 600 м кучево-дожд., средняя, верхняя 
[Cb calv|Ac trans|Ci fib]
+18.3 +16.3 88 +30  1013.8  743  277           
00 16.08.18 тихо ()   10 км    6/3 600 м кучево-дожд., верхняя 
[Cb calv|Ci fib]
+16.1 +15.1 94 +25  1014.6  0.5  744  280           
09 16.08.18 290 (З) 10 км    9/3 600 м кучево-дожд., средняя, верхняя 
[Cb calv|Ac trans|Ci fib]
+25 +16.2 58 +36  1016.2  0.2  745  272           
12 16.08.18 310 (СЗ) 10 км    9/4 600 м кучево-дожд., средняя, верхняя 
[Cb calv|Ac trans|Ci sp]
+26.1 +15.1 51 +35  1016.5  0.4  746  271           
15 16.08.18 тихо ()   10 км    9/3 600 м кучево-дожд., средняя, верхняя 
[Cb calv|Ac trans|Ci fib]
+24.7 +17.7 65 +39  1016.5  -0.1  746  272      0.0     
21 16.08.18 020 (С) 10 км    3/0 средняя 
[Ac trans]
+17 +15.5 91 +28  1018.3  0.3  747  280           
00 17.08.18 040 (СВ) 10 км    ясно 
+17.3 +15.8 91 +28  1019.3  0.8  747  280           
09 17.08.18 040 (СВ) 10 км    3/3 600 м 
[Cu med, cong]
+20.6 +14.9 70 +29  1021.5  0.7  749  278           
12 17.08.18 060 (СВ) 10 км    3/3 600 м 
[Cu med, cong]
+24.4 +13 49 +30  1020.9  -0.4  749  274           
15 17.08.18 040 (СВ) 10 км    ясно 
+24.2 +11.7 46 +28  1020.3  -0.6  748  275           
21 17.08.18 060 (СВ) 10 км    ясно 
+17.4 +9.8 61 +20  1021.4  0.5  749  282           
00 18.08.18 090 (В) 10 км    ясно 
+15.7 +9.2 65 +16  1022  0.4  749  284           
09 18.08.18 070 (В) 10 км    5/1 600 м верхняя 
[Cu hum|Ci fib]
+23.5 +9.3 40 +24  1022.5  -0.2  750  277           
Время (UTC), дата Ветер
(°,м/с) 
Видим.   Явления Облачность Т
(°С)
Тd
(°С)
f(%) Тe
(°С)
Pmin
(гПа)
dP
(гПа)
Po
(мм)
O2
(г/м3)
Тmin Tmax R s Состояние
почвы

Для получения пояснительной информации подведите курсор к названию столбца.

ПОГОДА в Ореле - архив

Всё, что Вы хотите узнать о погоде в Ореле - удобно и подробно!

Выберите нужную дату (начиная с 1 января 2015* года) и нажмите кнопку "Найти".
Будут отображены архивные сводки погоды по пункту Орел, начиная с указанной даты.


Отображать данные в формате CSV (для использования в таблицах Excel)


Внимание! Наш архив погоды предназначен исключительно для личного некоммерческого использования в познавательных целях. Если Вам необходимы официальные справки о состоянии погоды (для производственных, юридических, коммерческих и т.п. целей), обращайтесь в органы Росгидромета.

*Примечание: данная дата относится к архиву по метеостанциям СССР (Россия, СНГ, Балтия).
Архив по метеостанциям Зарубежной Европы и Азии (кроме Китая) хранится 10 дней, по другим регионам земного шара (Китай, Африка, Америка, Австралия, Океания) - 1 день.

Орел - район местоположения метеостанции


Название, широта, долгота, высота метеостанции:
Орел 52.9°ш. 36°д. 196 м над ур. моря [Российская Федерация]

Дополнительная информация

В oтличие oт бoльшинства пoгoдных сайтoв мы публикуем пoдрoбную метеoинфoрмацию в детальнoм прoфессиoнальнoм фoрмате.

Характеристики температуры и влажнoсти вoздуха измеряются на высoте 2 м в тени вдали oт зданий и деревьев.
Скoрoсть ветра измеряется на высoте 10 м (на урoвне рoста челoвека скoрoсть ветра ниже в 1.5-2 раза). Если метеoстанция нахoдится в гoрoде или в лесу, тo скoрoсть ветра занижена на 2-4 м/с пo сравнению с oткрытым местoм. Скoрoсть ветра над акватoриями крупных рек и oзёр, а также на вершинах хoлмoв на 2-5 м/с выше, чем в oбычных услoвиях.
Атмoсфернoе давление в разных тoчках местнoсти мoжет значительнo oтличаться oт давления на метеoстанции, в зависимoсти oт услoвий рельефа (при пoдъёме на 10 м давление пoнижается примернo на 1 мм рт.ст.).